PROXIMA I (43694 NORAD) Tracking and Keplerian Element Data

This shows tracking and keplerian element data for the satellite.

Feedback or suggestion? Click here.




ElementValue
Catalog43694
NamePROXIMA I
Epoch Orbit1089
Epoch Day21.83180365
Epoch Year2019
RAAN55.6377
Inclination85.0305
Eccentricity0.0020049
Argument of Perigee14.5982
Mean Anonmoly345.5834
Mean Motion15.21105111
Decay Rate6.81E-06
L11 43694U 18088E 19021.83180365 .00000681 00000-0 28661-4 0 9990
L22 43694 85.0305 55.6377 0020049 14.5982 345.5834 15.21105111 10894

Live tracking and technical data element details for PROXIMA I (NORAD 43694). PROXIMA I can be tracked NOW for your location showing map with azimuth and elevation plus other details from your city location.

Track the satellite on the map from your city or location and see movement details for azimuth, elevation, latitude, longitude, range, height, and movement on the map or in text.







IsCatalogInMostPopularTable: catalog: 43694, numindb: 53
Update: records affected: 1



GetName: 43694 PROXIMA I

Hit Count: updated at: Wed, 23 Jan 2019 03:31:41 GMT